Location: Newark
(50.0953°N, 2.1719°E)
Time: 01:08:37
(UTC+00:00)

N. Korean satellite - Pass Details

Date: 23 January 2020
Orbit: 456 x 505 km, 97.2° (Epoch: 26 February)

Event Time Altitude Azimuth Distance (km) Brightness Sun altitude
Rises 06:32:43 0° 4° (N) 2,526 10.1 -10.3°
Reaches altitude 10° 06:34:55 10° 353° (N) 1,651 9.0 -9.9°
Maximum altitude 06:38:02 29° 292° (WNW) 902 7.4 -9.5°
Drops below altitude 10° 06:41:10 10° 230° (SW) 1,664 9.0 -9.0°
Sets 06:43:24 0° 220° (SW) 2,549 10.0 -8.7°
